Location: Fort Wayne
(41.1310°N, 85.1290°W)
Time: 18:34:56
(UTC-04:00)

SR - Visible Passes

Search period start: 06 May 2015 00:00
Search period end: 16 May 2015 00:00
Orbit: 585 x 876 km, 66.7° (Epoch: 05 May)

Date Brightness Start Highest point End Pass type
(mag) Time Alt. Az. Time Alt. Az. Time Alt. Az.
06 May ? 00:26:03 10° NNW 00:28:53 35° N 00:28:53 35° N visible
06 May ? 23:37:39 10° N 23:41:12 25° NE 23:41:12 25° NE visible
07 May ? 01:19:20 10° NW 01:20:40 18° NW 01:20:40 18° NW visible
07 May ? 22:49:50 10° NNE 22:52:01 14° NE 22:53:33 12° ENE visible
08 May ? 00:30:14 10° NNW 00:33:01 39° NW 00:33:01 39° NW visible
08 May ? 23:41:31 10° NNW 23:45:23 46° NE 23:45:23 46° NE visible
09 May ? 01:24:30 10° WNW 01:24:51 11° WNW 01:24:51 11° WNW visible
09 May ? 22:53:07 10° N 22:56:44 25° NE 22:57:48 23° ENE visible
10 May ? 00:34:46 10° NW 00:37:15 28° WNW 00:37:15 28° WNW visible
10 May ? 22:05:18 10° NNE 22:07:29 14° NE 22:09:51 10° ENE visible
10 May ? 23:45:40 10° NNW 23:49:42 71° NW 23:49:42 71° NW visible
11 May ? 22:56:57 10° NNW 23:01:14 47° NE 23:02:10 41° E visible
12 May ? 00:39:53 10° WNW 00:41:38 16° W 00:41:38 16° W visible
12 May ? 22:08:34 10° N 22:12:11 24° NE 22:14:41 16° E visible
12 May ? 23:50:11 10° NW 23:54:08 38° WSW 23:54:08 38° WSW visible
13 May ? 21:20:45 10° NNE 21:22:54 13° NE 21:25:17 10° ENE visible
13 May ? 23:01:06 10° NNW 23:05:35 83° WSW 23:06:41 52° SSE visible
14 May ? 22:12:22 10° NNW 22:16:40 47° NE 22:19:17 23° ESE visible
14 May ? 23:55:16 10° WNW 23:58:32 19° WSW 23:58:45 19° WSW visible
15 May ? 21:23:59 10° N 21:27:36 24° NE 21:31:28 10° ESE visible
15 May ? 23:05:35 10° NW 23:09:49 39° WSW 23:11:23 30° SSW visible
